Location: Moscow
(55.7500°N, 37.5830°E)
Time: 13:45:48
(UTC+03:00)

S-56A Canister/Altair - Pass Details

Date: 08 December 2021
Orbit: 633 x 2499 km, 38.9° (Epoch: 17 January)

Event Time Altitude Azimuth Distance (km) Brightness Sun altitude
Rises 23:30:14 0° 228° (SW) 5,580 - -55.7°
Reaches altitude 10° 23:35:10 10° 217° (SW) 4,266 - -55.9°
Maximum altitude 23:42:59 23° 171° (S) 2,777 - -56.3°
Drops below altitude 10° 23:48:58 10° 123° (ESE) 3,163 - -56.5°
Sets 23:51:58 0° 108° (ESE) 3,863 - -56.6°
